STARLINK-11293, 61249

Orbit data source: Space-Track

STARLINK-11293, 61249 is a payload satellite owned by SpaceX/Seattle (US) in LEO that was launched on Wed, 25 Sep 2024 UTC via an FALCON 9 launch vehicle from the Air Force Western Test Range (AFWTR). Payloads include a variety of satellites, spacecraft, and rockets equipped with specific instruments for various scientific and technological missions. These include communications satellites like Starlink; space stations such as the ISS; scientific satellites like the Hubble; Earth observation satellites from companies like Planet Labs, Umbra, and HawkEye 360; GPS; miniature CubeSats for education and research; and military/defense satellites.

Loading next visibility...
STARLINK-11293 details
Identifier
61249, 2024-175G
Orbit
LEO
Last TLE update20 hours ago
Origin
Flag of USSpaceX/Seattle (US)
ManufacturerSpaceX/Seattle
MissionOperational spacecraft
Bus & MotorSTARLINK V2M, Unknown motor
Mass730 kg wet, ~700 kg dry
Launch date (UTC)
2024-09-25 (3 months ago)
Launch vehicle
FALCON 9
Launch site
Air Force Western Test Range (AFWTR)
Object type
Payload
Rocket body
Debris
Shape & HBRUnknown
Radar Cross SectionLarge (>1 m²)

Expand to show TLE details & history

TLE from 20 hours ago
0 STARLINK-11293
1 61249U 24175G   24355.67802901 -.00001091  00000-0 -41476-5 0  9993
2 61249  53.1571  84.7787 0001410  89.4226 270.6954 15.69706975 13635
Epoch: 2024-12-20T16:16Z
Definitive object data (Epoch: 2024-12-20T16:16:21.706Z)
Latitude0.00002°
Longitude110.94818°
Altitude360.639 km
Speed7.694 km/s
True Right ascension05h 39m 06s
True Declination0° 00' 00"
Sunlit
Object was in full shadow at TLE epoch
Visualization TLE readout
Latitude-46.85072°
Longitude54.28465°
Altitude376.585 km
Speed7.683 km/s
Apparent Right ascension00h 20m 11s
Apparent Declination-45° 32' 28"
Sunlit
Object is in daylight
Visualization observer readout
Local Sidereal Time10:53:17
Azimuth243.38° WSW
Elevation-73.143°
Doppler factor1
Orbital elements
Apogee altitude360.947 km
Perigee altitude359.046 km
Semi-major axis6,738.134 km
Eccentricity0.000141
Inclination53.1571°
RAAN84.7787°
Arg. of periapsis89.4226°
True anomaly270.67924°
Mean anomaly270.6954°
Eccentric anomaly270.68732°
Mean motion3.92404 °/min
BSTAR-0.0000041476
Orbital period91.74 mins
Loading maneuver chart data...
Loading historical data...
Loading historical data...
Loading historical data...
Loading historical data...
Loading historical data...
Loading historical data...
Loading historical data...

STARLINK-11293 Visibility forecast

Observer location: undefined°, undefined

Span
Click to sort rows by Start time (UTC) header in descending order
Start Az.
Max El. time (UTC)
Max El. Az.
Max El.
End time (UTC)
End Az.
4 mins2024-12-21 15:42:34.846Z308.776° NW2024-12-21 15:43:34.846Z303.932° NW42.656°2024-12-21 15:46:34.846Z131.943° SE
4 mins2024-12-22 08:11:34.846Z194.276° SSW2024-12-22 08:12:34.846Z154.109° SSE34.893°2024-12-22 08:15:34.846Z61.566° ENE
|